Location: Sangrey
(48.2845°N, 109.8206°W)
Time: 01:10:55
(UTC+00:00)

Envisat - Pass Details

Date: 25 January 2022
Orbit: 764 x 765 km, 98.2° (Epoch: 22 May)

Event Time Altitude Azimuth Distance (km) Brightness Sun altitude
Rises 11:34:48 0° 21° (NNE) 3,242 6.6 -33.3°
Reaches altitude 10° 11:37:19 10° 30° (NNE) 2,311 5.9 -32.9°
Maximum altitude 11:41:58 35° 96° (E) 1,221 4.4 -32.1°
Drops below altitude 10° 11:46:35 10° 162° (SSE) 2,296 5.6 -31.4°
Sets 11:49:04 0° 171° (S) 3,218 6.3 -30.9°
